Time,TemperatureF,DewpointF,PressureIn,WindDirection,WindDirectionDegrees,WindSpeedMPH,WindSpeedGustMPH,Humidity,HourlyPrecipIn,Conditions,Clouds,dailyrainin,SoftwareType,DateUTC
2013-02-05 00:05:00,45.8,-99.9,30.11,NE,36,0.0,-999.0,0,-99.99,,,0.00,weatherlink.com 1.10,2013-02-05 05:05:00,
2013-02-05 00:20:00,45.5,-99.9,30.11,NE,37,0.0,-999.0,0,-99.99,,,0.00,weatherlink.com 1.10,2013-02-05 05:20:00,
2013-02-05 00:35:00,45.2,-99.9,30.09,NE,37,0.0,-999.0,0,-99.99,,,0.00,weatherlink.com 1.10,2013-02-05 05:35:00,
2013-02-05 00:50:00,45.1,-99.9,30.09,NE,38,0.0,-999.0,0,-99.99,,,0.00,weatherlink.com 1.10,2013-02-05 05:50:00,
2013-02-05 01:05:00,45.3,-99.9,30.09,NE,37,0.0,-999.0,0,-99.99,,,0.00,weatherlink.com 1.10,2013-02-05 06:05:00,
2013-02-05 01:21:00,45.1,-99.9,30.09,NE,37,0.0,-999.0,0,-99.99,,,0.00,weatherlink.com 1.10,2013-02-05 06:21:00,
2013-02-05 01:35:00,44.6,-99.9,30.08,NE,37,0.0,-999.0,0,-99.99,,,0.00,weatherlink.com 1.10,2013-02-05 06:35:00,
2013-02-05 01:50:00,44.4,-99.9,30.07,NE,37,0.0,-999.0,0,-99.99,,,0.00,weatherlink.com 1.10,2013-02-05 06:50:00,
2013-02-05 02:05:00,44.7,-99.9,30.07,NE,37,0.0,-999.0,0,-99.99,,,0.00,weatherlink.com 1.10,2013-02-05 07:05:00,
2013-02-05 02:21:00,44.3,-99.9,30.06,NE,37,0.0,-999.0,0,-99.99,,,0.00,weatherlink.com 1.10,2013-02-05 07:21:00,
2013-02-05 02:36:00,44.5,-99.9,30.05,NE,36,0.0,-999.0,0,-99.99,,,0.00,weatherlink.com 1.10,2013-02-05 07:36:00,
2013-02-05 02:51:00,44.6,-99.9,30.06,NE,37,0.0,-999.0,0,-99.99,,,0.00,weatherlink.com 1.10,2013-02-05 07:51:00,
2013-02-05 03:06:00,44.6,-99.9,30.05,NE,36,0.0,-999.0,0,-99.99,,,0.00,weatherlink.com 1.10,2013-02-05 08:06:00,
2013-02-05 03:21:00,44.5,-99.9,30.05,NE,36,0.0,-999.0,0,-99.99,,,0.00,weatherlink.com 1.10,2013-02-05 08:21:00,
2013-02-05 03:36:00,45.0,-99.9,30.05,NE,36,0.0,-999.0,0,-99.99,,,0.00,weatherlink.com 1.10,2013-02-05 08:36:00,
2013-02-05 03:51:00,45.1,-99.9,30.04,NE,37,0.0,-999.0,0,-99.99,,,0.00,weatherlink.com 1.10,2013-02-05 08:51:00,
2013-02-05 04:06:00,45.3,-99.9,30.05,NE,37,0.0,-999.0,0,-99.99,,,0.00,weatherlink.com 1.10,2013-02-05 09:06:00,
2013-02-05 04:21:00,45.2,-99.9,30.05,NE,36,0.0,-999.0,0,-99.99,,,0.00,weatherlink.com 1.10,2013-02-05 09:21:00,
2013-02-05 04:36:00,45.5,-99.9,30.04,NE,37,0.0,-999.0,0,-99.99,,,0.00,weatherlink.com 1.10,2013-02-05 09:36:00,
2013-02-05 04:52:00,45.6,-99.9,30.04,NE,36,0.0,-999.0,0,-99.99,,,0.00,weatherlink.com 1.10,2013-02-05 09:52:00,
2013-02-05 05:06:00,45.4,-99.9,30.05,NE,36,0.0,-999.0,0,-99.99,,,0.00,weatherlink.com 1.10,2013-02-05 10:06:00,
2013-02-05 05:21:00,45.8,-99.9,30.05,NE,36,0.0,-999.0,0,-99.99,,,0.00,weatherlink.com 1.10,2013-02-05 10:21:00,
2013-02-05 05:37:00,45.8,-99.9,30.05,NE,36,0.0,-999.0,0,-99.99,,,0.00,weatherlink.com 1.10,2013-02-05 10:37:00,
2013-02-05 05:52:00,46.4,-99.9,30.05,NE,36,0.0,-999.0,0,-99.99,,,0.00,weatherlink.com 1.10,2013-02-05 10:52:00,
2013-02-05 06:07:00,46.9,-99.9,30.05,NE,36,0.0,-999.0,0,-99.99,,,0.00,weatherlink.com 1.10,2013-02-05 11:07:00,
2013-02-05 06:22:00,46.8,-99.9,30.06,NE,36,0.0,-999.0,0,-99.99,,,0.00,weatherlink.com 1.10,2013-02-05 11:22:00,
2013-02-05 06:37:00,46.7,-99.9,30.06,NE,37,0.0,-999.0,0,-99.99,,,0.00,weatherlink.com 1.10,2013-02-05 11:37:00,
2013-02-05 06:52:00,46.3,-99.9,30.07,NE,37,0.0,-999.0,0,-99.99,,,0.00,weatherlink.com 1.10,2013-02-05 11:52:00,
2013-02-05 07:07:00,46.4,-99.9,30.07,NE,37,0.0,-999.0,0,-99.99,,,0.00,weatherlink.com 1.10,2013-02-05 12:07:00,
2013-02-05 07:22:00,46.0,-99.9,30.08,NE,38,0.0,-999.0,0,-99.99,,,0.00,weatherlink.com 1.10,2013-02-05 12:22:00,
2013-02-05 07:37:00,46.8,-99.9,30.10,NE,38,0.0,-999.0,0,-99.99,,,0.00,weatherlink.com 1.10,2013-02-05 12:37:00,
2013-02-05 07:53:00,47.4,-99.9,30.10,NNE,28,3.0,-999.0,0,-99.99,,,0.00,weatherlink.com 1.10,2013-02-05 12:53:00,
2013-02-05 08:08:00,48.4,-99.9,30.10,NNE,23,0.0,-999.0,0,-99.99,,,0.00,weatherlink.com 1.10,2013-02-05 13:08:00,
2013-02-05 08:22:00,48.9,-99.9,30.10,NNE,13,1.0,-999.0,0,-99.99,,,0.00,weatherlink.com 1.10,2013-02-05 13:22:00,
2013-02-05 08:37:00,49.7,-99.9,30.10,NNE,30,0.0,-999.0,0,-99.99,,,0.00,weatherlink.com 1.10,2013-02-05 13:37:00,
2013-02-05 08:52:00,50.7,-99.9,30.10,NNE,23,0.0,-999.0,0,-99.99,,,0.00,weatherlink.com 1.10,2013-02-05 13:52:00,
2013-02-05 09:09:00,50.2,-99.9,30.10,NE,46,2.0,-999.0,0,-99.99,,,0.00,weatherlink.com 1.10,2013-02-05 14:09:00,
2013-02-05 09:23:00,51.2,-99.9,30.11,NNE,30,3.0,-999.0,0,-99.99,,,0.00,weatherlink.com 1.10,2013-02-05 14:23:00,
2013-02-05 09:38:00,53.4,-99.9,30.11,NNE,32,2.0,-999.0,0,-99.99,,,0.00,weatherlink.com 1.10,2013-02-05 14:38:00,
2013-02-05 09:53:00,54.7,-99.9,30.11,NE,34,2.0,-999.0,0,-99.99,,,0.00,weatherlink.com 1.10,2013-02-05 14:53:00,
2013-02-05 10:08:00,54.4,-99.9,30.11,ENE,65,1.0,-999.0,0,-99.99,,,0.00,weatherlink.com 1.10,2013-02-05 15:08:00,
2013-02-05 10:23:00,55.1,-99.9,30.11,ENE,58,4.0,-999.0,0,-99.99,,,0.00,weatherlink.com 1.10,2013-02-05 15:23:00,
2013-02-05 10:38:00,56.1,-99.9,30.10,ENE,63,2.0,-999.0,0,-99.99,,,0.00,weatherlink.com 1.10,2013-02-05 15:38:00,
2013-02-05 10:53:00,56.9,-99.9,30.10,NE,37,3.0,-999.0,0,-99.99,,,0.00,weatherlink.com 1.10,2013-02-05 15:53:00,
2013-02-05 11:08:00,57.3,-99.9,30.09,NE,43,3.0,-999.0,0,-99.99,,,0.00,weatherlink.com 1.10,2013-02-05 16:08:00,
2013-02-05 11:23:00,58.6,-99.9,30.09,NE,40,1.0,-999.0,0,-99.99,,,0.00,weatherlink.com 1.10,2013-02-05 16:23:00,
2013-02-05 11:39:00,60.7,-29.0,30.09,NNE,32,6.0,-999.0,2,-99.99,,,0.00,weatherlink.com 1.10,2013-02-05 16:39:00,
2013-02-05 11:53:00,62.1,20.0,30.08,ENE,58,3.0,-999.0,20,-99.99,,,0.00,weatherlink.com 1.10,2013-02-05 16:53:00,
2013-02-05 12:08:00,61.9,27.0,30.07,NE,38,3.0,-999.0,27,-99.99,,,0.00,weatherlink.com 1.10,2013-02-05 17:08:00,
2013-02-05 12:23:00,63.2,33.0,30.06,NE,49,4.0,-999.0,32,-99.99,,,0.00,weatherlink.com 1.10,2013-02-05 17:23:00,
2013-02-05 12:39:00,63.1,39.0,30.05,NE,35,3.0,-999.0,42,-99.99,,,0.00,weatherlink.com 1.10,2013-02-05 17:39:00,
2013-02-05 12:54:00,63.8,42.0,30.05,NE,42,2.0,-999.0,45,-99.99,,,0.00,weatherlink.com 1.10,2013-02-05 17:54:00,
2013-02-05 13:09:00,64.7,44.0,30.04,NE,44,1.0,-999.0,48,-99.99,,,0.00,weatherlink.com 1.10,2013-02-05 18:09:00,
2013-02-05 13:24:00,65.0,40.0,30.03,NE,53,1.0,-999.0,40,-99.99,,,0.00,weatherlink.com 1.10,2013-02-05 18:24:00,
2013-02-05 13:39:00,63.7,29.0,30.02,North,9,0.0,-999.0,27,-99.99,,,0.00,weatherlink.com 1.10,2013-02-05 18:39:00,
2013-02-05 13:54:00,62.7,22.0,30.01,NNW,327,3.0,-999.0,21,-99.99,,,0.00,weatherlink.com 1.10,2013-02-05 18:54:00,
2013-02-05 14:09:00,62.5,21.0,30.01,NNW,339,4.0,-999.0,20,-99.99,,,0.00,weatherlink.com 1.10,2013-02-05 19:09:00,
2013-02-05 14:24:00,61.9,20.0,30.01,NNW,329,2.0,-999.0,20,-99.99,,,0.00,weatherlink.com 1.10,2013-02-05 19:24:00,
2013-02-05 14:39:00,62.1,17.0,30.00,NNW,338,2.0,-999.0,17,-99.99,,,0.00,weatherlink.com 1.10,2013-02-05 19:39:00,
2013-02-05 14:55:00,61.2,-4.0,30.00,North,9,5.0,-999.0,7,-99.99,,,0.00,weatherlink.com 1.10,2013-02-05 19:55:00,
2013-02-05 15:10:00,60.2,-99.9,30.00,North,355,2.0,-999.0,0,-99.99,,,0.00,weatherlink.com 1.10,2013-02-05 20:10:00,
2013-02-05 15:24:00,59.5,-99.9,30.00,North,351,4.0,-999.0,0,-99.99,,,0.00,weatherlink.com 1.10,2013-02-05 20:24:00,
2013-02-05 15:39:00,59.0,-99.9,30.00,NE,36,3.0,-999.0,0,-99.99,,,0.00,weatherlink.com 1.10,2013-02-05 20:39:00,
2013-02-05 15:55:00,59.2,-99.9,30.00,North,355,3.0,-999.0,0,-99.99,,,0.00,weatherlink.com 1.10,2013-02-05 20:55:00,
2013-02-05 16:10:00,59.5,-99.9,30.00,NNE,25,0.0,-999.0,0,-99.99,,,0.00,weatherlink.com 1.10,2013-02-05 21:10:00,
2013-02-05 16:25:00,59.6,-99.9,30.00,NNW,334,5.0,-999.0,0,-99.99,,,0.00,weatherlink.com 1.10,2013-02-05 21:25:00,
2013-02-05 16:40:00,59.6,-99.9,30.00,NNW,346,4.0,-999.0,0,-99.99,,,0.00,weatherlink.com 1.10,2013-02-05 21:40:00,
2013-02-05 16:55:00,59.1,-99.9,30.00,NNE,33,5.0,-999.0,0,-99.99,,,0.00,weatherlink.com 1.10,2013-02-05 21:55:00,
2013-02-05 17:10:00,58.5,-99.9,30.00,NNW,340,3.0,-999.0,0,-99.99,,,0.00,weatherlink.com 1.10,2013-02-05 22:10:00,
2013-02-05 17:25:00,57.6,-99.9,30.00,North,5,1.0,-999.0,0,-99.99,,,0.00,weatherlink.com 1.10,2013-02-05 22:25:00,
2013-02-05 17:40:00,56.1,-99.9,30.01,NNE,13,1.0,-999.0,0,-99.99,,,0.00,weatherlink.com 1.10,2013-02-05 22:40:00,
2013-02-05 17:55:00,55.2,-99.9,30.01,NNE,18,1.0,-999.0,0,-99.99,,,0.00,weatherlink.com 1.10,2013-02-05 22:55:00,
2013-02-05 18:10:00,54.8,-99.9,30.01,NNE,26,1.0,-999.0,0,-99.99,,,0.00,weatherlink.com 1.10,2013-02-05 23:10:00,
2013-02-05 18:25:00,54.6,-99.9,30.01,NNE,17,0.0,-999.0,0,-99.99,,,0.00,weatherlink.com 1.10,2013-02-05 23:25:00,
2013-02-05 18:40:00,54.5,-99.9,30.02,NNE,17,3.0,-999.0,0,-99.99,,,0.00,weatherlink.com 1.10,2013-02-05 23:40:00,
2013-02-05 18:56:00,54.4,-99.9,30.02,NNE,13,1.0,-999.0,0,-99.99,,,0.00,weatherlink.com 1.10,2013-02-05 23:56:00,
2013-02-05 19:10:00,54.3,-99.9,30.02,North,5,2.0,-999.0,0,-99.99,,,0.00,weatherlink.com 1.10,2013-02-06 00:10:00,
2013-02-05 19:26:00,54.2,-99.9,30.02,NNE,23,4.0,-999.0,0,-99.99,,,0.00,weatherlink.com 1.10,2013-02-06 00:26:00,
2013-02-05 19:41:00,54.1,-99.9,30.03,NE,36,2.0,-999.0,0,-99.99,,,0.00,weatherlink.com 1.10,2013-02-06 00:41:00,
2013-02-05 19:56:00,53.9,-99.9,30.03,NE,36,4.0,-999.0,0,-99.99,,,0.00,weatherlink.com 1.10,2013-02-06 00:56:00,
2013-02-05 20:11:00,53.7,-99.9,30.03,NNE,24,1.0,-999.0,0,-99.99,,,0.00,weatherlink.com 1.10,2013-02-06 01:11:00,
2013-02-05 20:26:00,53.6,-99.9,30.03,NNE,28,3.0,-999.0,0,-99.99,,,0.00,weatherlink.com 1.10,2013-02-06 01:26:00,
2013-02-05 20:41:00,53.7,-99.9,30.03,NNE,26,4.0,-999.0,0,-99.99,,,0.00,weatherlink.com 1.10,2013-02-06 01:41:00,
2013-02-05 20:56:00,53.7,-99.9,30.04,NNE,15,4.0,-999.0,0,-99.99,,,0.00,weatherlink.com 1.10,2013-02-06 01:56:00,
2013-02-05 21:11:00,53.5,-99.9,30.05,North,355,1.0,-999.0,0,-99.99,,,0.00,weatherlink.com 1.10,2013-02-06 02:11:00,
2013-02-05 21:26:00,53.3,-99.9,30.05,NNE,15,2.0,-999.0,0,-99.99,,,0.00,weatherlink.com 1.10,2013-02-06 02:26:00,
2013-02-05 21:42:00,53.1,-99.9,30.05,NNE,13,1.0,-999.0,0,-99.99,,,0.00,weatherlink.com 1.10,2013-02-06 02:42:00,
2013-02-05 21:56:00,52.9,-99.9,30.05,North,5,0.0,-999.0,0,-99.99,,,0.00,weatherlink.com 1.10,2013-02-06 02:56:00,
2013-02-05 22:11:00,52.8,-99.9,30.05,ENE,61,4.0,-999.0,0,-99.99,,,0.00,weatherlink.com 1.10,2013-02-06 03:11:00,
2013-02-05 22:27:00,52.6,-99.9,30.05,ENE,65,1.0,-999.0,0,-99.99,,,0.00,weatherlink.com 1.10,2013-02-06 03:27:00,
2013-02-05 22:41:00,52.6,-99.9,30.06,NE,34,0.0,-999.0,0,-99.99,,,0.00,weatherlink.com 1.10,2013-02-06 03:41:00,
2013-02-05 22:57:00,52.8,-99.9,30.06,NE,43,0.0,-999.0,0,-99.99,,,0.00,weatherlink.com 1.10,2013-02-06 03:57:00,
2013-02-05 23:12:00,52.5,-99.9,30.07,NE,49,0.0,-999.0,0,-99.99,,,0.00,weatherlink.com 1.10,2013-02-06 04:12:00,
2013-02-05 23:27:00,52.3,-99.9,30.06,NNE,31,0.0,-999.0,0,-99.99,,,0.00,weatherlink.com 1.10,2013-02-06 04:27:00,
2013-02-05 23:42:00,52.2,-99.9,30.06,NNE,15,2.0,-999.0,0,-99.99,,,0.00,weatherlink.com 1.10,2013-02-06 04:42:00,
2013-02-05 23:57:00,52.0,-99.9,30.06,NNW,348,3.0,-999.0,0,-99.99,,,0.00,weatherlink.com 1.10,2013-02-06 04:57:00,